TimeCDT,TemperatureF,Dew PointF,Humidity,Sea Level PressureIn,VisibilityMPH,Wind Direction,Wind SpeedMPH,Gust SpeedMPH,PrecipitationIn,Events,Conditions,WindDirDegrees,DateUTC
12:54 AM,63.0,59.0,87,30.17,10.0,SE,3.5,-,N/A,,Clear,140,2013-08-24 05:54:00
1:54 AM,63.0,57.9,84,30.17,10.0,SE,3.5,-,N/A,,Clear,140,2013-08-24 06:54:00
2:54 AM,62.1,57.0,84,30.19,10.0,SE,3.5,-,N/A,,Clear,130,2013-08-24 07:54:00
3:54 AM,60.1,55.9,86,30.20,10.0,East,5.8,-,N/A,,Clear,100,2013-08-24 08:54:00
4:54 AM,59.0,55.0,87,30.21,10.0,ESE,5.8,-,N/A,,Clear,120,2013-08-24 09:54:00
5:54 AM,57.9,54.0,87,30.22,10.0,East,3.5,-,N/A,,Clear,80,2013-08-24 10:54:00
6:54 AM,57.9,55.0,90,30.23,10.0,East,4.6,-,N/A,,Clear,90,2013-08-24 11:54:00
7:54 AM,62.1,55.0,78,30.24,10.0,East,3.5,-,N/A,,Clear,90,2013-08-24 12:54:00
8:54 AM,69.1,51.1,53,30.23,10.0,South,9.2,-,N/A,,Clear,190,2013-08-24 13:54:00
9:54 AM,73.0,52.0,48,30.22,10.0,South,10.4,-,N/A,,Clear,180,2013-08-24 14:54:00
10:54 AM,77.0,53.1,43,30.22,10.0,South,11.5,-,N/A,,Mostly Cloudy,170,2013-08-24 15:54:00
11:54 AM,80.1,53.1,39,30.22,10.0,SSE,13.8,-,N/A,,Clear,160,2013-08-24 16:54:00
12:54 PM,82.0,55.0,39,30.20,10.0,SSE,13.8,-,N/A,,Mostly Cloudy,160,2013-08-24 17:54:00
1:54 PM,80.1,55.9,43,30.18,10.0,SSW,11.5,-,N/A,,Scattered Clouds,200,2013-08-24 18:54:00
2:54 PM,82.9,55.9,39,30.15,10.0,SSE,12.7,-,N/A,,Mostly Cloudy,150,2013-08-24 19:54:00
3:54 PM,82.9,61.0,47,30.14,10.0,South,12.7,-,N/A,,Scattered Clouds,180,2013-08-24 20:54:00
4:54 PM,82.0,63.0,52,30.13,10.0,South,11.5,-,N/A,,Overcast,180,2013-08-24 21:54:00
5:54 PM,82.0,64.0,54,30.12,10.0,South,11.5,-,N/A,,Mostly Cloudy,170,2013-08-24 22:54:00
6:54 PM,80.1,64.9,60,30.11,10.0,South,10.4,-,N/A,,Clear,170,2013-08-24 23:54:00
7:54 PM,78.1,66.0,66,30.10,10.0,South,9.2,-,N/A,,Clear,170,2013-08-25 00:54:00
8:54 PM,75.9,66.0,71,30.12,10.0,South,10.4,-,N/A,,Clear,180,2013-08-25 01:54:00
9:54 PM,75.9,66.0,71,30.11,10.0,South,11.5,-,N/A,,Partly Cloudy,180,2013-08-25 02:54:00
10:54 PM,75.0,66.0,73,30.09,10.0,South,12.7,-,N/A,,Clear,170,2013-08-25 03:54:00
11:54 PM,73.9,64.9,73,30.09,10.0,South,15.0,20.7,N/A,,Partly Cloudy,180,2013-08-25 04:54:00